Wind_Speed
12 11 10 9 8 8 7 6 6 5 4 4 4 3 2 2 1 1 1 0 1 2 3 3 4 4 4 5 5 5 5 5 5 5 6 6 6 7 7 8 8 9 9
13 13 12 11 10 9 8 7 6 5 5 4 4 4 3 2 2 2 2 2 2 3 3 4 4 5 5 5 5 5 5 5 6 6 6 7 8 8 8 9 9 10 10
15 14 13 12 11 10 9 8 7 6 6 5 5 4 4 4 4 4 4 4 4 4 4 4 5 5 5 6 6 6 6 6 7 7 8 8 9 10 10 10 11 11 11
16 15 15 14 13 12 11 10 9 8 7 6 6 6 5 5 5 6 6 6 6 5 5 6 6 6 6 6 6 7 7 7 8 8 9 10 10 11 11 11 12 12 12
18 17 16 16 15 14 12 11 11 10 9 8 8 7 7 7 7 7 7 7 7 7 7 7 7 8 8 8 8 8 9 9 9 10 10 11 11 12 12 12 13 13 13
20 19 18 17 17 16 14 13 13 12 11 10 10 9 9 9 9 8 8 8 9 9 9 9 9 9 9 10 10 10 10 11 11 11 12 12 12 13 13 13 14 14 14
21 21 20 19 18 17 16 15 14 13 13 12 11 11 11 11 10 10 10 10 11 11 11 11 11 11 11 11 11 12 12 12 12 13 13 13 13 13 13 14 14 15 15
23 22 21 21 20 19 18 17 16 15 14 14 13 13 12 12 12 12 12 12 12 12 13 13 13 12 12 13 13 13 13 13 13 14 14 14 14 14 15 15 15 16 16
24 24 23 22 21 20 19 19 18 17 16 16 15 14 14 14 13 13 13 14 14 14 14 14 14 14 14 14 14 14 14 14 15 15 15 15 16 16 17 17 17 18 18
25 24 24 23 23 22 21 20 20 19 18 17 17 16 16 15 15 15 15 15 15 15 15 14 14 15 15 15 16 16 16 16 16 17 17 17 17 18 18 19 19 19 20
27 26 25 24 24 23 22 21 21 20 19 18 18 17 17 16 16 16 15 16 16 16 16 16 16 16 16 17 17 17 18 18 18 18 18 18 19 19 20 20 21 21 21
29 28 26 25 25 24 23 22 21 21 20 19 19 18 18 17 17 17 16 17 17 17 17 17 17 18 18 18 18 18 19 19 19 19 19 20 20 21 21 22 22 22 22
30 29 28 27 26 26 25 24 23 22 21 21 20 20 19 19 19 18 18 18 18 18 18 18 19 19 19 20 20 20 20 20 21 21 21 21 22 23 23 23 23 23 24
32 31 30 29 28 27 26 25 25 24 23 22 22 21 21 21 20 20 20 20 20 19 19 20 20 20 21 21 21 21 22 22 22 23 23 23 23 23 24 24 24 25 25
34 33 32 31 30 29 28 27 26 25 24 24 23 23 22 22 22 21 22 22 21 21 21 21 21 22 22 23 23 23 24 24 24 24 24 25 25 25 25 25 26 27 27
36 35 34 33 32 30 29 29 28 27 26 26 25 25 24 24 23 23 23 23 23 23 23 23 23 23 24 24 25 25 26 26 26 26 26 26 27 27 27 28 29 29 30
37 36 35 34 33 32 31 30 29 29 28 27 27 26 26 25 25 24 24 24 24 24 24 24 25 26 26 26 27 27 28 28 28 28 28 28 28 29 29 30 31 31 32
38 37 36 36 35 33 32 31 31 30 29 29 28 28 27 27 27 26 26 26 26 26 26 26 27 27 27 28 28 28 29 29 29 30 30 30 31 31 32 33 33 33 34
39 38 37 36 36 35 34 33 32 31 31 30 30 29 29 28 28 28 27 28 27 27 28 29 29 29 29 30 30 30 30 31 31 31 32 32 33 33 34 35 35 35 36
41 40 38 37 36 36 35 34 33 32 32 31 31 31 30 30 30 29 29 29 29 30 30 30 30 31 31 31 31 32 32 32 33 33 34 34 34 35 36 36 36 36 37
42 41 40 39 38 37 36 35 35 34 33 33 32 32 32 31 31 31 31 31 31 32 32 32 32 33 33 33 33 33 33 33 34 35 35 36 36 37 37 38 38 38 39
42 41 40 39 39 38 37 37 36 35 35 34 34 34 33 33 33 33 33 33 33 33 33 33 34 34 34 34 34 35 35 35 35 36 37 38 38 38 39 39 39 40 41
42 41 40 40 39 39 39 38 38 37 36 36 36 36 35 35 34 34 34 34 34 34 34 34 34 35 35 35 36 36 37 37 37 37 38 39 40 40 40 41 41 42 42
43 42 41 40 39 39 39 39 39 38 37 37 37 36 37 37 36 36 35 35 35 35 35 35 35 36 36 37 37 38 39 39 39 39 40 41 42 42 42 42 43 44 45
44 43 42 41 40 40 40 39 39 39 39 39 38 37 37 37 37 37 36 36 36 36 36 36 36 37 38 38 39 39 40 41 42 42 41 42 43 43 43 44 46 47 47
44 43 42 41 40 40 40 40 40 40 40 40 39 39 39 39 38 38 38 37 37 37 37 37 38 38 39 40 41 41 42 43 44 44 44 44 43 44 45 46 47 48 49
Wind_Direction
216 216 216 216 214 212 211 209 209 211 216 212 205 209 211 212 210 223 252 301 339 353 360 360 358 356 353 351 348 346 344 342 342 339 337 337 334 331 329 327 325 325 324
219 219 219 220 220 219 218 217 216 218 218 213 215 224 233 242 248 257 264 276 299 317 327 337 339 339 339 338 338 336 331 329 330 328 327 327 326 325 324 322 320 319 318
223 222 221 223 224 224 224 223 222 223 225 225 228 235 245 258 265 268 274 280 290 301 308 317 323 325 328 328 328 325 322 320 318 317 317 318 318 318 317 316 316 315 314
225 226 225 226 228 229 229 228 227 229 234 236 240 245 252 261 269 271 274 278 283 291 298 303 309 311 313 317 317 315 313 312 310 310 311 313 314 313 313 313 313 313 313
228 229 230 230 232 233 233 233 234 236 239 243 249 252 254 261 268 271 273 275 279 285 291 295 298 300 304 308 308 307 307 307 306 307 309 309 309 310 311 311 312 312 311
231 231 232 233 234 236 237 238 240 242 244 247 251 255 258 262 268 269 272 275 278 283 287 290 292 294 297 300 300 301 302 302 301 301 303 306 306 308 308 309 308 308 309
234 233 234 234 235 237 239 241 243 245 247 249 252 256 259 263 267 269 271 273 277 281 285 287 289 291 294 295 296 298 299 300 299 299 301 303 304 306 307 307 307 307 307
235 234 234 235 236 237 239 242 244 247 248 250 252 256 259 262 265 268 271 274 277 279 281 283 285 288 291 292 294 296 298 298 299 299 300 300 302 304 305 305 306 306 305
235 235 235 235 236 237 240 242 245 247 249 251 253 255 258 262 266 269 273 275 276 278 279 281 283 285 288 290 291 294 296 297 298 298 299 299 300 301 302 302 303 303 303
233 234 235 235 236 238 241 243 245 247 249 251 253 255 258 262 265 270 274 275 276 277 278 280 282 285 288 290 291 292 293 295 297 297 296 296 297 299 300 300 301 301 301
233 234 235 236 237 238 241 243 245 247 249 252 253 255 259 262 266 270 273 275 276 277 278 280 282 284 287 289 290 291 292 294 295 296 296 296 297 298 299 300 300 300 300
234 234 235 237 238 239 241 243 245 247 249 251 253 255 258 262 266 269 272 274 276 278 279 280 281 283 285 287 289 290 291 292 294 295 295 296 297 297 298 298 299 299 299
234 235 235 237 238 240 241 242 244 247 250 252 254 256 259 263 266 269 271 273 276 278 279 280 281 282 283 285 288 289 290 291 292 293 294 295 296 297 298 298 298 298 298
234 235 236 237 239 240 241 243 245 247 250 252 255 257 260 263 266 269 270 272 275 277 278 280 282 282 283 284 286 288 290 290 291 293 294 294 296 297 297 297 297 298 297
234 235 237 238 239 241 242 243 245 248 250 252 255 258 261 263 266 268 270 271 273 275 277 278 280 282 284 284 285 287 289 289 290 292 293 293 294 295 295 296 297 297 297
234 235 237 238 240 242 243 244 246 248 251 253 256 258 260 263 265 268 272 272 273 274 275 277 279 281 282 283 285 286 287 288 289 290 291 292 293 294 294 295 296 296 297
234 236 237 239 241 242 244 245 247 249 251 253 255 258 261 263 265 269 272 274 273 274 275 278 279 280 281 282 284 286 287 288 288 289 290 292 292 293 293 294 295 295 296
234 236 237 239 241 243 245 246 248 250 251 253 255 258 260 263 265 268 271 273 275 274 276 278 279 281 281 282 285 286 287 288 288 288 290 291 292 292 293 293 293 294 294
234 236 238 239 241 243 245 247 248 250 251 253 255 258 260 263 265 267 270 273 275 275 276 278 278 280 281 282 283 285 285 286 287 289 290 291 292 292 293 293 293 293 293
235 236 238 239 241 243 245 246 248 250 252 254 255 257 259 262 265 267 271 272 274 275 276 278 279 280 281 281 282 284 285 286 287 289 290 291 292 293 293 292 292 293 293
236 237 239 240 242 243 244 246 248 250 252 254 256 258 260 263 264 267 269 271 273 274 276 277 279 280 281 282 283 284 285 286 288 289 290 291 292 293 293 293 293 292 292
237 238 239 240 241 243 244 246 248 250 252 254 256 258 260 263 265 267 269 270 272 275 276 277 278 280 281 282 284 284 285 286 288 289 290 291 292 293 293 293 293 292 293
237 238 240 241 242 243 245 247 249 251 253 254 255 257 259 262 265 267 269 270 272 274 276 277 278 280 281 283 284 285 286 287 288 289 290 290 291 292 293 293 293 294 294
237 238 239 240 241 243 245 247 249 251 253 254 255 257 259 262 264 266 269 271 272 274 276 277 278 280 281 283 285 286 287 288 288 289 290 290 291 292 292 292 293 294 294
237 238 239 241 242 244 246 248 250 251 252 254 255 257 260 262 264 266 269 270 272 274 275 277 278 280 282 283 285 287 288 289 289 289 290 291 291 292 292 292 292 293 294
237 239 240 242 243 245 247 248 250 252 253 254 256 257 259 261 263 265 268 270 272 274 275 276 278 280 282 284 285 287 288 289 289 289 290 290 290 292 292 293 293 293 294
Height
5865 5866 5867 5869 5870 5871 5872 5873 5873 5874 5875 5875 5876 5877 5877 5878 5878 5878 5879 5879 5879 5879 5879 5879 5879 5879 5878 5878 5878 5877 5877 5877 5877 5876 5876 5876 5875 5875 5874 5874 5874 5873 5873
5864 5865 5866 5868 5869 5870 5871 5872 5873 5874 5874 5875 5876 5876 5877 5877 5878 5878 5879 5879 5879 5879 5879 5879 5879 5878 5878 5878 5877 5877 5877 5877 5876 5876 5876 5875 5875 5874 5874 5873 5873 5872 5872
5862 5863 5865 5866 5868 5869 5870 5871 5872 5873 5874 5874 5875 5876 5876 5877 5877 5878 5878 5878 5878 5878 5878 5878 5878 5878 5878 5877 5877 5877 5876 5876 5876 5875 5875 5875 5874 5874 5873 5872 5872 5871 5870
5860 5861 5863 5865 5866 5867 5869 5870 5871 5872 5873 5873 5874 5875 5876 5876 5877 5877 5877 5878 5878 5878 5878 5878 5877 5877 5877 5877 5876 5876 5876 5875 5875 5875 5874 5874 5873 5872 5872 5871 5870 5869 5869
5857 5859 5861 5863 5864 5865 5867 5868 5869 5870 5871 5872 5873 5874 5874 5875 5876 5876 5877 5877 5877 5877 5877 5877 5877 5876 5876 5875 5875 5875 5874 5874 5874 5873 5873 5872 5872 5871 5870 5869 5868 5868 5867
5854 5856 5858 5860 5862 5863 5865 5866 5868 5869 5870 5871 5871 5872 5873 5873 5874 5875 5875 5875 5876 5876 5876 5875 5875 5875 5874 5874 5874 5873 5873 5873 5872 5872 5871 5871 5870 5869 5868 5868 5867 5866 5865
5851 5853 5855 5857 5859 5861 5862 5864 5866 5867 5868 5869 5870 5870 5871 5872 5872 5873 5874 5874 5874 5874 5874 5874 5874 5873 5873 5873 5872 5872 5871 5871 5870 5870 5869 5869 5868 5867 5866 5865 5865 5864 5863
5848 5850 5852 5854 5856 5858 5860 5861 5863 5864 5865 5866 5867 5868 5869 5870 5871 5871 5871 5872 5872 5872 5872 5872 5872 5871 5871 5871 5870 5870 5869 5869 5868 5868 5867 5866 5866 5865 5864 5863 5862 5861 5860
5844 5846 5848 5851 5853 5855 5857 5858 5860 5861 5863 5864 5865 5866 5867 5868 5868 5869 5869 5869 5869 5870 5870 5869 5869 5869 5869 5868 5868 5867 5867 5866 5866 5865 5865 5864 5863 5862 5861 5860 5859 5858 5857
5840 5842 5845 5847 5849 5851 5853 5855 5857 5858 5860 5861 5862 5863 5864 5865 5866 5866 5866 5867 5867 5867 5867 5867 5867 5866 5866 5866 5865 5865 5864 5864 5863 5863 5862 5861 5860 5859 5858 5857 5856 5855 5854
5836 5838 5841 5843 5846 5848 5850 5852 5853 5855 5857 5858 5859 5860 5861 5862 5863 5863 5864 5864 5864 5864 5864 5864 5864 5864 5863 5863 5863 5862 5862 5861 5860 5860 5859 5858 5857 5856 5855 5854 5853 5851 5850
5831 5834 5837 5839 5842 5844 5846 5848 5850 5852 5853 5854 5856 5857 5858 5859 5860 5860 5861 5861 5861 5861 5861 5861 5861 5861 5860 5860 5859 5859 5858 5858 5857 5856 5855 5854 5853 5852 5851 5850 5849 5847 5846
5826 5829 5832 5835 5837 5840 5842 5844 5846 5848 5849 5851 5852 5853 5854 5855 5856 5857 5857 5857 5858 5858 5858 5857 5857 5857 5857 5857 5856 5855 5855 5854 5854 5853 5852 5851 5849 5848 5847 5846 5844 5843 5842
5821 5824 5827 5830 5832 5835 5838 5840 5842 5844 5846 5847 5848 5849 5851 5851 5852 5853 5853 5854 5854 5854 5854 5854 5854 5853 5853 5853 5852 5852 5851 5850 5850 5848 5848 5846 5845 5844 5842 5841 5840 5838 5837
5815 5818 5822 5825 5827 5830 5833 5835 5838 5840 5841 5843 5844 5845 5846 5847 5848 5849 5849 5849 5850 5850 5850 5850 5850 5849 5849 5848 5848 5847 5847 5846 5845 5844 5843 5842 5840 5839 5838 5836 5835 5833 5831
5809 5813 5816 5819 5822 5825 5828 5830 5833 5835 5836 5838 5839 5840 5842 5843 5843 5844 5844 5845 5845 5845 5845 5845 5845 5845 5844 5844 5843 5842 5842 5841 5840 5839 5838 5836 5835 5833 5832 5830 5829 5827 5825
5803 5807 5810 5813 5817 5819 5822 5825 5827 5829 5831 5833 5834 5835 5837 5838 5838 5839 5839 5840 5840 5840 5840 5840 5840 5840 5839 5839 5838 5837 5836 5835 5834 5833 5832 5830 5829 5827 5826 5824 5822 5820 5818
5797 5800 5804 5807 5811 5814 5816 5819 5821 5823 5825 5827 5829 5830 5831 5832 5833 5834 5834 5834 5834 5835 5835 5835 5835 5834 5833 5833 5832 5831 5830 5829 5828 5827 5826 5824 5823 5821 5819 5817 5815 5813 5811
5790 5794 5797 5801 5805 5808 5810 5813 5815 5817 5819 5821 5823 5824 5825 5826 5827 5828 5828 5828 5829 5829 5829 5829 5829 5828 5828 5827 5826 5825 5824 5823 5821 5820 5819 5817 5816 5814 5812 5810 5808 5806 5803
5783 5787 5791 5794 5798 5801 5804 5806 5809 5811 5813 5815 5816 5818 5819 5820 5821 5822 5822 5822 5823 5823 5823 5823 5822 5822 5821 5820 5819 5818 5817 5816 5815 5813 5812 5810 5808 5806 5804 5802 5800 5798 5795
5775 5779 5783 5787 5791 5794 5797 5800 5802 5804 5806 5808 5810 5811 5812 5814 5814 5815 5816 5816 5816 5816 5816 5816 5815 5815 5814 5813 5812 5811 5810 5809 5808 5806 5804 5802 5800 5798 5796 5793 5791 5789 5786
5768 5772 5776 5780 5783 5787 5790 5792 5795 5797 5799 5801 5803 5804 5805 5807 5807 5808 5809 5809 5809 5809 5809 5809 5808 5807 5807 5806 5805 5804 5803 5803 5801 5799 5797 5795 5792 5790 5787 5785 5782 5780 5777
5760 5765 5769 5772 5776 5779 5782 5785 5787 5790 5792 5794 5796 5797 5798 5799 5800 5801 5801 5801 5802 5802 5801 5801 5801 5800 5799 5798 5797 5796 5794 5794 5793 5791 5789 5786 5784 5781 5779 5776 5773 5770 5767
5752 5756 5761 5764 5767 5771 5774 5777 5780 5782 5785 5786 5788 5789 5791 5791 5792 5793 5793 5794 5794 5794 5794 5793 5793 5792 5791 5790 5789 5787 5786 5784 5783 5782 5781 5778 5775 5772 5769 5766 5763 5760 5757
5743 5748 5752 5756 5760 5763 5766 5769 5771 5774 5776 5778 5780 5782 5783 5784 5784 5785 5786 5786 5786 5786 5786 5785 5785 5784 5783 5781 5780 5778 5777 5775 5772 5771 5770 5768 5766 5763 5759 5756 5753 5749 5746
5735 5739 5744 5748 5752 5755 5758 5760 5763 5766 5768 5770 5772 5773 5774 5775 5776 5777 5777 5777 5777 5777 5777 5777 5776 5775 5774 5772 5771 5769 5767 5765 5763 5761 5759 5757 5755 5753 5749 5746 5742 5738 5734